Simultaneous Nadir Overpasses (SNOs) Predictions

Prediction of SNOs between AURA and NPP Satellite Orbit:

Table of predicted SNOs for the next 14.0 days since TLE Epoch: 7/8/2016
Index Date (AURA) Time (AURA) Lat,Lon (AURA) SZA (AURA ) Date (NPP) Time (NPP) Lat,Lon (NPP) SZA (NPP ) Distance(km) Time Diff (sec)
1 07/11/2016 10:35:29 79.11, -84.75 71.61 07/11/2016 10:34:56 79.10, -84.86 71.65 2.59 33
2 07/11/2016 11:24:47 -79.47, 85.23 108.92 07/11/2016 11:25:31 -79.47, 85.24 108.96 0.23 44
3 07/14/2016 02:51:52 79.31, 32.42 71.71 07/14/2016 02:51:44 79.32, 32.52 71.69 2.04 8
4 07/14/2016 03:41:14 -79.51,-158.56 108.60 07/14/2016 03:42:24 -79.51,-158.63 108.63 1.51 70
5 07/16/2016 18:19:01 -79.01, -21.20 107.44 07/16/2016 18:18:02 -79.01, -21.27 107.38 1.45 59
6 07/16/2016 19:08:17 79.39, 148.83 72.03 07/16/2016 19:08:35 79.39, 148.87 72.00 0.95 18
7 07/19/2016 10:35:26 -79.13, 95.40 107.13 07/19/2016 10:34:53 -79.12, 95.32 107.09 1.95 33
8 07/19/2016 11:24:43 79.46, -94.79 72.39 07/19/2016 11:25:27 79.46, -94.77 72.36 0.49 44
9 07/22/2016 02:51:51 -79.24,-148.01 106.78 07/22/2016 02:51:44 -79.23,-148.09 106.76 1.84 7




NCC Satellite Simultaneous Nadir Overpasses (SNOs) Prediction Service
